TimeAKST,TemperatureF,Dew PointF,Humidity,Sea Level PressureIn,VisibilityMPH,Wind Direction,Wind SpeedMPH,Gust SpeedMPH,PrecipitationIn,Events,Conditions,WindDirDegrees,DateUTC
12:16 AM,-38.2,-9999,N/A,29.51,0.8,NNE,16.1,-,N/A,,Overcast,30,2013-02-22 09:16:00
12:36 AM,-38.2,-9999,N/A,29.52,1.5,NNE,15.0,-,N/A,,Overcast,30,2013-02-22 09:36:00
12:56 AM,-40.0,-9999,N/A,29.52,2.5,NNE,15.0,-,N/A,,Overcast,30,2013-02-22 09:56:00
1:16 AM,-40.0,-9999,N/A,29.50,1.8,NE,15.0,19.6,N/A,,Overcast,40,2013-02-22 10:16:00
1:36 AM,-40.0,-9999,N/A,29.50,1.5,NNE,16.1,-,N/A,,Overcast,30,2013-02-22 10:36:00
1:56 AM,-40.0,-9999,N/A,29.51,1.8,NNE,16.1,20.7,N/A,,Overcast,30,2013-02-22 10:56:00
2:16 AM,-40.0,-9999,N/A,29.51,2.0,NNE,17.3,20.7,N/A,,Overcast,30,2013-02-22 11:16:00
2:36 AM,-40.0,-9999,N/A,29.51,2.0,NNE,17.3,-,N/A,,Overcast,30,2013-02-22 11:36:00
3:16 AM,-40.0,-9999,N/A,29.51,3.0,NNE,13.8,-,N/A,,Overcast,30,2013-02-22 12:16:00
3:36 AM,-38.2,-9999,N/A,29.51,2.5,NNE,15.0,-,N/A,,Overcast,30,2013-02-22 12:36:00
3:56 AM,-38.2,-9999,N/A,29.51,2.0,NNE,13.8,-,N/A,,Overcast,30,2013-02-22 12:56:00
4:16 AM,-38.2,-9999,N/A,29.51,2.0,NNE,16.1,-,N/A,,Overcast,30,2013-02-22 13:16:00
4:36 AM,-38.2,-9999,N/A,29.51,1.8,NNE,15.0,-,N/A,,Overcast,30,2013-02-22 13:36:00
4:56 AM,-38.2,-9999,N/A,29.51,2.0,NNE,15.0,-,N/A,,Overcast,30,2013-02-22 13:56:00
5:16 AM,-38.2,-9999,N/A,29.52,2.0,NNE,16.1,-,N/A,,Overcast,30,2013-02-22 14:16:00
5:36 AM,-38.2,-9999,N/A,29.51,2.0,NNE,15.0,-,N/A,,Overcast,30,2013-02-22 14:36:00
5:56 AM,-38.2,-9999,N/A,29.52,2.0,NNE,15.0,18.4,N/A,,Overcast,30,2013-02-22 14:56:00
6:16 AM,-38.2,-9999,N/A,29.52,2.5,NNE,16.1,-,N/A,,Overcast,30,2013-02-22 15:16:00
6:36 AM,-38.2,-9999,N/A,29.52,3.0,NE,15.0,-,N/A,,Overcast,40,2013-02-22 15:36:00
6:56 AM,-38.2,-9999,N/A,29.52,2.5,NE,15.0,-,N/A,,Overcast,40,2013-02-22 15:56:00
7:16 AM,-38.2,-9999,N/A,29.53,3.0,NE,15.0,18.4,N/A,,Overcast,40,2013-02-22 16:16:00
7:36 AM,-38.2,-9999,N/A,29.53,3.0,NNE,15.0,19.6,N/A,,Overcast,30,2013-02-22 16:36:00
7:56 AM,-38.2,-9999,N/A,29.53,5.0,NE,13.8,19.6,N/A,,Overcast,40,2013-02-22 16:56:00
8:16 AM,-38.2,-9999,N/A,29.53,4.0,NNE,13.8,20.7,N/A,,Mostly Cloudy,30,2013-02-22 17:16:00
8:36 AM,-38.2,-9999,N/A,29.54,3.0,NNE,12.7,19.6,N/A,,Mostly Cloudy,30,2013-02-22 17:36:00
8:56 AM,-38.2,-9999,N/A,29.54,5.0,NNE,12.7,-,N/A,,Mostly Cloudy,30,2013-02-22 17:56:00
9:16 AM,-38.2,-9999,N/A,29.54,6.0,NNE,12.7,18.4,N/A,,Overcast,30,2013-02-22 18:16:00
9:36 AM,-38.2,-9999,N/A,29.55,4.0,NNE,12.7,-,N/A,,Overcast,30,2013-02-22 18:36:00
9:56 AM,-38.2,-9999,N/A,29.55,2.5,NNE,12.7,18.4,N/A,,Overcast,30,2013-02-22 18:56:00
10:16 AM,-38.2,-9999,N/A,29.55,2.5,NNE,13.8,-,N/A,,Overcast,30,2013-02-22 19:16:00
10:36 AM,-38.2,-9999,N/A,29.55,2.5,NNE,13.8,-,N/A,,Overcast,30,2013-02-22 19:36:00
10:56 AM,-38.2,-9999,N/A,29.55,2.5,NNE,12.7,-,N/A,,Overcast,30,2013-02-22 19:56:00
11:16 AM,-38.2,-9999,N/A,29.55,4.0,NE,12.7,16.1,N/A,,Overcast,40,2013-02-22 20:16:00
11:36 AM,-38.2,-9999,N/A,29.55,7.0,NE,13.8,-,N/A,,Overcast,40,2013-02-22 20:36:00
11:56 AM,-38.2,-9999,N/A,29.55,5.0,NE,10.4,-,N/A,,Mostly Cloudy,40,2013-02-22 20:56:00
12:16 PM,-38.2,-9999,N/A,29.55,10.0,NE,10.4,-,N/A,,Partly Cloudy,40,2013-02-22 21:16:00
12:36 PM,-38.2,-9999,N/A,29.55,10.0,NNE,12.7,-,N/A,,Clear,30,2013-02-22 21:36:00
12:56 PM,-38.2,-9999,N/A,29.56,10.0,NE,12.7,-,N/A,,Mostly Cloudy,40,2013-02-22 21:56:00
1:16 PM,-36.4,-9999,N/A,29.55,8.0,NE,9.2,-,N/A,,Overcast,40,2013-02-22 22:16:00
1:36 PM,-36.4,-9999,N/A,29.56,3.0,NE,12.7,-,N/A,,Overcast,50,2013-02-22 22:36:00
1:56 PM,-36.4,-9999,N/A,29.55,3.0,NE,11.5,-,N/A,,Overcast,40,2013-02-22 22:56:00
2:16 PM,-36.4,-9999,N/A,29.56,1.8,NNE,12.7,-,N/A,,Overcast,30,2013-02-22 23:16:00
2:36 PM,-36.4,-9999,N/A,29.55,1.5,NNE,11.5,-,N/A,,Overcast,30,2013-02-22 23:36:00
2:56 PM,-36.4,-9999,N/A,29.55,1.5,NNE,12.7,-,N/A,,Overcast,30,2013-02-22 23:56:00
3:16 PM,-36.4,-9999,N/A,29.55,2.0,NE,10.4,-,N/A,,Overcast,40,2013-02-23 00:16:00
3:36 PM,-36.4,-9999,N/A,29.55,2.0,NNE,12.7,-,N/A,,Overcast,30,2013-02-23 00:36:00
3:56 PM,-36.4,-9999,N/A,29.54,3.0,NNE,12.7,-,N/A,,Overcast,30,2013-02-23 00:56:00
4:16 PM,-36.4,-9999,N/A,29.54,3.0,NNE,11.5,-,N/A,,Overcast,30,2013-02-23 01:16:00
4:36 PM,-36.4,-9999,N/A,29.55,2.5,NNE,11.5,-,N/A,,Overcast,30,2013-02-23 01:36:00
4:56 PM,-36.4,-9999,N/A,29.54,3.0,NNE,11.5,-,N/A,,Overcast,30,2013-02-23 01:56:00
5:16 PM,-36.4,-9999,N/A,29.54,3.0,NNE,12.7,-,N/A,,Overcast,30,2013-02-23 02:16:00
5:36 PM,-36.4,-9999,N/A,29.54,2.0,NNE,12.7,-,N/A,,Overcast,30,2013-02-23 02:36:00
5:56 PM,-36.4,-9999,N/A,29.53,5.0,NNE,11.5,-,N/A,,Overcast,30,2013-02-23 02:56:00
6:16 PM,-36.4,-9999,N/A,29.53,3.0,NNE,11.5,-,N/A,,Overcast,30,2013-02-23 03:16:00
6:36 PM,-36.4,-9999,N/A,29.53,2.5,NNE,10.4,-,N/A,,Overcast,30,2013-02-23 03:36:00
6:56 PM,-36.4,-9999,N/A,29.53,3.0,NNE,10.4,-,N/A,,Overcast,30,2013-02-23 03:56:00
7:16 PM,-36.4,-9999,N/A,29.52,3.0,NNE,12.7,-,N/A,,Overcast,30,2013-02-23 04:16:00
7:36 PM,-36.4,-9999,N/A,29.52,3.0,NNE,12.7,-,N/A,,Overcast,30,2013-02-23 04:36:00
7:56 PM,-36.4,-9999,N/A,29.51,3.0,NNE,12.7,-,N/A,,Overcast,30,2013-02-23 04:56:00
8:16 PM,-36.4,-9999,N/A,29.51,3.0,NNE,12.7,-,N/A,,Overcast,30,2013-02-23 05:16:00
8:36 PM,-36.4,-9999,N/A,29.51,3.0,NNE,11.5,-,N/A,,Overcast,30,2013-02-23 05:36:00
8:56 PM,-36.4,-9999,N/A,29.50,3.0,NNE,10.4,-,N/A,,Overcast,30,2013-02-23 05:56:00
9:16 PM,-36.4,-9999,N/A,29.50,3.0,NNE,12.7,-,N/A,,Overcast,30,2013-02-23 06:16:00
9:36 PM,-36.4,-9999,N/A,29.50,4.0,NNE,10.4,-,N/A,,Overcast,30,2013-02-23 06:36:00
9:56 PM,-36.4,-9999,N/A,29.50,8.0,NNE,12.7,-,N/A,,Overcast,30,2013-02-23 06:56:00
10:16 PM,-36.4,-9999,N/A,29.49,4.0,NNE,12.7,-,N/A,,Overcast,30,2013-02-23 07:16:00
10:36 PM,-36.4,-9999,N/A,29.49,4.0,NNE,13.8,-,N/A,,Overcast,30,2013-02-23 07:36:00
10:56 PM,-36.4,-9999,N/A,29.49,3.0,NNE,13.8,-,N/A,,Overcast,30,2013-02-23 07:56:00
11:16 PM,-34.6,-9999,N/A,29.49,5.0,NNE,11.5,-,N/A,,Overcast,30,2013-02-23 08:16:00
11:36 PM,-34.6,-9999,N/A,29.48,3.0,NNE,11.5,-,N/A,,Overcast,30,2013-02-23 08:36:00
11:56 PM,-34.6,-9999,N/A,29.48,3.0,NNE,10.4,-,N/A,,Overcast,30,2013-02-23 08:56:00